{"data":{"norad_id":65345,"epoch":"2026-09-20T13:45:06.202080Z","epoch_age_seconds":111168,"freshness":"FRESH","line1":"1 65345U 25189Y   26263.57298845  .00003835  00000+0  13525-3 0  9992","line2":"2 65345  53.1581  20.1553 0001553  90.0173 270.1006 15.31707780 60975","mean_motion":15.3170778,"eccentricity":0.0001553,"inclination_deg":53.1581,"raan_deg":20.1553,"arg_perigee_deg":90.0173,"mean_anomaly_deg":270.1006,"bstar":0.00013525,"rev_number":6097,"period_min":94.012710440108,"perigee_km":469.65317655296,"apogee_km":471.78043054434,"semimajor_km":6848.8538035486,"source":"CELESTRAK","updated_at":"2026-09-21T09:00:35.573545Z"}}